Flag for U.S.A. Weather past 2 weeks in Irvine, California, U.S.A.

Now
70 °F

Partly sunny.


Feels Like: 70 °F
Forecast: 67 / 83 °F
Wind: 5 mph from Southwest

Location: John Wayne Airport-Orange County Airport

Current Time: Aug 3, 2015 at 10:13:14 AM

Latest Report: Aug 3, 2015 at 8:53 AM


Visibility: 10 mi

Pressure: 29.90 "Hg

Humidity: 81%

Dew point: 64 °F

Location of IrvineLocation

Historic Weather in Irvine — Graph

°F

Irvine temperature yesterday

Maximum temperature yesterday: 78 °F (at 1:53 PM)
Minimum temperature yesterday: 68 °F (at 1:53 AM)
Average temperature yesterday: 72 °F

Past Weeks' High & Low Weather Summary

 TemperatureHumidityPressure
High88 °F (Jul 19, 11:53 AM)94% (Jul 26, 6:02 AM)30.07 "Hg (Jul 26, 6:02 AM)
Low66 °F (Jul 26, 6:02 AM)44% (Jul 25, 1:53 PM)29.82 "Hg (Aug 2, 6:53 PM)
Average73 °F75%29.94 "Hg
* Reported Jul 19 8:53 AM — Aug 3 8:53 AM, Irvine, Weather by CustomWeather, © 2015

Note: Actual official high and low records may vary slightly from our data, if they occured in-between our weather recording intervals... More about our weather records

Advertising

Irvine weather history for previous 24 hours

 ConditionsComfort  
Time TempWeatherWind HumidityBarometerVisibility
8:53 AM
Mon, Aug 3
70 °FPartly sunny.5 mph81%29.90 "Hg10 mi
7:53 AM69 °FOvercast.7 mph81%29.89 "Hg9 mi
6:53 AM68 °FOvercast.No wind84%29.89 "Hg10 mi
5:53 AM68 °FOvercast.3 mph84%29.88 "Hg10 mi
4:53 AM68 °FOvercast.No wind84%29.87 "Hg10 mi
3:53 AM69 °FOvercast.No wind81%29.86 "Hg10 mi
2:53 AM69 °FOvercast.No wind81%29.87 "Hg10 mi
1:53 AM69 °FPassing clouds.5 mph87%29.87 "Hg10 mi
12:53 AM68 °FClear.3 mph87%29.86 "Hg10 mi
11:53 PM
Sun, Aug 2
69 °FClear.3 mph87%29.86 "Hg10 mi
10:53 PM69 °FPassing clouds.5 mph87%29.86 "Hg8 mi
9:53 PM70 °FPassing clouds.6 mph81%29.85 "Hg9 mi
8:53 PM71 °FPassing clouds.6 mph81%29.84 "Hg10 mi
7:53 PM72 °FPassing clouds.9 mph81%29.83 "Hg10 mi
6:53 PM75 °FPassing clouds.5 mph71%29.82 "Hg10 mi
5:53 PM77 °FPassing clouds.8 mph64%29.82 "Hg10 mi
4:53 PM76 °FPassing clouds.7 mph67%29.83 "Hg10 mi
3:53 PM78 °FPassing clouds.9 mph62%29.85 "Hg10 mi
2:53 PM78 °FScattered clouds.12 mph62%29.87 "Hg10 mi
1:53 PM78 °FScattered clouds.12 mph64%29.88 "Hg10 mi
12:53 PM77 °FScattered clouds.8 mph66%29.89 "Hg10 mi
11:53 AM76 °FScattered clouds.5 mph69%29.91 "Hg10 mi
10:53 AM72 °FOvercast.No wind76%29.92 "Hg10 mi
Weather by CustomWeather, © 2015

See weather overviewHow to use our weather pages